Find Starlink 31584

NORAD ID: 59862 Int'l Des: 2024-098 Owner: SPXS Country: US Constellation: starlink operational
LEOCIRCULAR

当前视图

正在加载3D地球...

About Starlink 31584

Starlink 31584 (NORAD 59862) is a starlink constellation satellite (v2 mini) launched May 24, 2024 by SPXS of US. It operates in LEO, CIRCULAR orbit with a mass of 730.00 kg.

关于 Starlink 31584

正在加载描述...

即将过境

Passes for default location (London). Set your location on the main map for personalized predictions.

高度历史

Loading altitude history...

两行轨道根数

1 59862U 24098E 26170.07646654 .00000950 00000-0 44075-4 0 9995
2 59862 43.0032 65.2775 0001341 285.9372 74.1332 15.27568754117358
Epoch: Jun 19, 2026 • Age: 28 hours

当前状态

高度 494.1 km
速度 7.62 km/s
星下点 -39.82°S, 0.8°E
发射日期 May 24, 2024
运行时间 2 years
类型 internet

技术详情

分类 Payload
质量 730.00 kg
干质量 700.00 kg
总质量 730.00 kg
长度 0.30 m
直径 4.10 m
跨度 29.00 m
形状 Box + pan
制造商 SPXS
平台类型 Starlink V2M
阶段状态 In Orbit
所有者/国家 SPXS/US

Most Searched